Time,TemperatureF,DewpointF,PressureIn,WindDirection,WindDirectionDegrees,WindSpeedMPH,WindSpeedGustMPH,Humidity,HourlyPrecipIn,Conditions,Clouds,dailyrainin,SoftwareType,DateUTC
2013-08-20 00:02:00,57.0,54.0,-100.00,NW,320,9.0,9.0,91,-99.99,,,-99.99,,2013-08-20 00:02:00,
2013-08-20 00:11:00,57.0,54.0,-100.00,NW,320,9.0,9.0,91,-99.99,,,-99.99,,2013-08-20 00:11:00,
2013-08-20 00:23:00,56.0,54.0,-100.00,NNW,330,7.0,11.0,93,-99.99,,,-99.99,,2013-08-20 00:23:00,
2013-08-20 00:32:00,56.0,54.0,-100.00,NNW,330,7.0,11.0,93,-99.99,,,-99.99,,2013-08-20 00:32:00,
2013-08-20 00:42:00,56.0,54.0,-100.00,NNW,330,7.0,11.0,93,-99.99,,,-99.99,,2013-08-20 00:42:00,
2013-08-20 00:52:00,56.0,54.0,-100.00,NW,325,6.0,7.0,94,-99.99,,,-99.99,,2013-08-20 00:52:00,
2013-08-20 01:03:00,56.0,54.0,-100.00,NW,325,6.0,7.0,94,-99.99,,,-99.99,,2013-08-20 01:03:00,
2013-08-20 01:11:00,56.0,54.0,-100.00,NW,325,6.0,7.0,94,-99.99,,,-99.99,,2013-08-20 01:11:00,
2013-08-20 01:22:00,54.0,53.0,-100.00,NW,320,4.0,7.0,96,-99.99,,,-99.99,,2013-08-20 01:22:00,
2013-08-20 01:32:00,54.0,53.0,-100.00,NW,320,4.0,7.0,96,-99.99,,,-99.99,,2013-08-20 01:32:00,
2013-08-20 01:42:00,54.0,53.0,-100.00,NW,320,4.0,7.0,96,-99.99,,,-99.99,,2013-08-20 01:42:00,
2013-08-20 01:52:00,54.0,53.0,-100.00,NNW,330,4.0,11.0,97,-99.99,,,-99.99,,2013-08-20 01:52:00,
2013-08-20 02:02:00,54.0,53.0,-100.00,NNW,330,4.0,11.0,97,-99.99,,,-99.99,,2013-08-20 02:02:00,
2013-08-20 02:11:00,54.0,53.0,-100.00,NNW,330,4.0,11.0,97,-99.99,,,-99.99,,2013-08-20 02:11:00,
2013-08-20 02:21:00,54.0,53.0,-100.00,NNW,340,4.0,7.0,97,-99.99,,,-99.99,,2013-08-20 02:21:00,
2013-08-20 02:32:00,54.0,53.0,-100.00,NNW,340,4.0,7.0,97,-99.99,,,-99.99,,2013-08-20 02:32:00,
2013-08-20 02:42:00,54.0,53.0,-100.00,NNW,340,4.0,7.0,97,-99.99,,,-99.99,,2013-08-20 02:42:00,
2013-08-20 02:52:00,54.0,54.0,-100.00,NNW,335,3.0,4.0,97,-99.99,,,-99.99,,2013-08-20 02:52:00,
2013-08-20 03:02:00,54.0,54.0,-100.00,NNW,335,3.0,4.0,97,-99.99,,,-99.99,,2013-08-20 03:02:00,
2013-08-20 03:11:00,54.0,54.0,-100.00,NNW,335,3.0,4.0,97,-99.99,,,-99.99,,2013-08-20 03:11:00,
2013-08-20 03:22:00,54.0,53.0,-100.00,NNW,330,5.0,6.0,97,-99.99,,,-99.99,,2013-08-20 03:22:00,
2013-08-20 03:33:00,54.0,53.0,-100.00,NNW,330,5.0,6.0,97,-99.99,,,-99.99,,2013-08-20 03:33:00,
2013-08-20 03:43:00,54.0,53.0,-100.00,NNW,330,5.0,6.0,97,-99.99,,,-99.99,,2013-08-20 03:43:00,
2013-08-20 03:54:00,53.0,53.0,-100.00,NNW,330,3.0,7.0,97,-99.99,,,-99.99,,2013-08-20 03:54:00,
2013-08-20 04:03:00,53.0,53.0,-100.00,NNW,330,3.0,7.0,97,-99.99,,,-99.99,,2013-08-20 04:03:00,
2013-08-20 04:13:00,53.0,53.0,-100.00,NNW,330,3.0,7.0,97,-99.99,,,-99.99,,2013-08-20 04:13:00,
2013-08-20 04:23:00,53.0,52.0,-100.00,NW,320,1.0,5.0,97,-99.99,,,-99.99,,2013-08-20 04:23:00,
2013-08-20 04:33:00,53.0,52.0,-100.00,NW,320,1.0,5.0,97,-99.99,,,-99.99,,2013-08-20 04:33:00,
2013-08-20 04:42:00,53.0,52.0,-100.00,NW,320,1.0,5.0,97,-99.99,,,-99.99,,2013-08-20 04:42:00,
2013-08-20 04:53:00,53.0,52.0,-100.00,North,5,2.0,4.0,97,-99.99,,,-99.99,,2013-08-20 04:53:00,
2013-08-20 05:02:00,53.0,52.0,-100.00,North,5,2.0,4.0,97,-99.99,,,-99.99,,2013-08-20 05:02:00,
2013-08-20 05:12:00,53.0,52.0,-100.00,North,5,2.0,4.0,97,-99.99,,,-99.99,,2013-08-20 05:12:00,
2013-08-20 05:22:00,52.0,51.0,-100.00,NW,325,6.0,8.0,97,-99.99,,,-99.99,,2013-08-20 05:22:00,
2013-08-20 05:32:00,52.0,51.0,-100.00,NW,325,6.0,8.0,97,-99.99,,,-99.99,,2013-08-20 05:32:00,
2013-08-20 05:42:00,52.0,51.0,-100.00,NW,325,6.0,8.0,97,-99.99,,,-99.99,,2013-08-20 05:42:00,
2013-08-20 05:52:00,51.0,51.0,-100.00,NW,325,4.0,8.0,97,-99.99,,,-99.99,,2013-08-20 05:52:00,
2013-08-20 06:01:00,51.0,51.0,-100.00,NW,325,4.0,8.0,97,-99.99,,,-99.99,,2013-08-20 06:01:00,
2013-08-20 06:11:00,51.0,51.0,-100.00,NW,325,4.0,8.0,97,-99.99,,,-99.99,,2013-08-20 06:11:00,
2013-08-20 06:21:00,51.0,50.0,-100.00,NW,325,4.0,6.0,97,-99.99,,,-99.99,,2013-08-20 06:21:00,
2013-08-20 06:31:00,51.0,50.0,-100.00,NW,325,4.0,6.0,97,-99.99,,,-99.99,,2013-08-20 06:31:00,
2013-08-20 06:42:00,51.0,50.0,-100.00,NW,325,4.0,6.0,97,-99.99,,,-99.99,,2013-08-20 06:42:00,
2013-08-20 06:51:00,51.0,50.0,-100.00,NNW,345,2.0,4.0,97,-99.99,,,-99.99,,2013-08-20 06:51:00,
2013-08-20 07:01:00,51.0,50.0,-100.00,NNW,345,2.0,4.0,97,-99.99,,,-99.99,,2013-08-20 07:01:00,
2013-08-20 07:11:00,51.0,50.0,-100.00,NNW,345,2.0,4.0,97,-99.99,,,-99.99,,2013-08-20 07:11:00,
2013-08-20 07:21:00,51.0,50.0,-100.00,North,355,3.0,4.0,97,-99.99,,,-99.99,,2013-08-20 07:21:00,
2013-08-20 07:32:00,51.0,50.0,-100.00,North,355,3.0,4.0,97,-99.99,,,-99.99,,2013-08-20 07:32:00,
2013-08-20 07:41:00,51.0,50.0,-100.00,North,355,3.0,4.0,97,-99.99,,,-99.99,,2013-08-20 07:41:00,
2013-08-20 07:52:00,51.0,50.0,-100.00,NW,310,1.0,2.0,97,-99.99,,,-99.99,,2013-08-20 07:52:00,
2013-08-20 08:02:00,51.0,50.0,-100.00,NW,310,1.0,2.0,97,-99.99,,,-99.99,,2013-08-20 08:02:00,
2013-08-20 08:11:00,51.0,50.0,-100.00,NW,310,1.0,2.0,97,-99.99,,,-99.99,,2013-08-20 08:11:00,
2013-08-20 08:21:00,51.0,50.0,-100.00,South,175,0.0,1.0,97,-99.99,,,-99.99,,2013-08-20 08:21:00,
2013-08-20 08:31:00,51.0,50.0,-100.00,South,175,0.0,1.0,97,-99.99,,,-99.99,,2013-08-20 08:31:00,
2013-08-20 08:42:00,51.0,50.0,-100.00,South,175,0.0,1.0,97,-99.99,,,-99.99,,2013-08-20 08:42:00,
2013-08-20 08:52:00,51.0,50.0,-100.00,WNW,295,1.0,2.0,97,-99.99,,,-99.99,,2013-08-20 08:52:00,
2013-08-20 09:01:00,51.0,50.0,-100.00,WNW,295,1.0,2.0,97,-99.99,,,-99.99,,2013-08-20 09:01:00,
2013-08-20 09:11:00,51.0,50.0,-100.00,WNW,295,1.0,2.0,97,-99.99,,,-99.99,,2013-08-20 09:11:00,
2013-08-20 09:21:00,51.0,50.0,-100.00,ESE,120,1.0,2.0,97,-99.99,,,-99.99,,2013-08-20 09:21:00,
2013-08-20 09:33:00,51.0,50.0,-100.00,ESE,120,1.0,2.0,97,-99.99,,,-99.99,,2013-08-20 09:33:00,
2013-08-20 09:42:00,51.0,50.0,-100.00,ESE,120,1.0,2.0,97,-99.99,,,-99.99,,2013-08-20 09:42:00,
2013-08-20 09:53:00,51.0,51.0,-100.00,SE,140,2.0,3.0,97,-99.99,,,-99.99,,2013-08-20 09:53:00,
2013-08-20 10:00:00,51.0,50.0,-100.00,SW,235,0.0,4.0,97,-99.99,,,-99.99,,2013-08-20 10:00:00,
2013-08-20 10:03:00,51.0,51.0,-100.00,SE,140,2.0,3.0,97,-99.99,,,-99.99,,2013-08-20 10:03:00,
2013-08-20 10:12:00,51.0,51.0,-100.00,SE,140,2.0,3.0,97,-99.99,,,-99.99,,2013-08-20 10:12:00,
2013-08-20 10:22:00,51.0,50.0,-100.00,ENE,70,3.0,4.0,97,-99.99,,,-99.99,,2013-08-20 10:22:00,
2013-08-20 10:32:00,51.0,50.0,-100.00,ENE,70,3.0,4.0,97,-99.99,,,-99.99,,2013-08-20 10:32:00,
2013-08-20 10:42:00,51.0,50.0,-100.00,ENE,70,3.0,4.0,97,-99.99,,,-99.99,,2013-08-20 10:42:00,
2013-08-20 10:52:00,51.0,50.0,-100.00,SW,235,0.0,4.0,97,-99.99,,,-99.99,,2013-08-20 10:52:00,